{"data":{"norad_id":58094,"intl_designator":"2023-160V","name":"STARLINK-30574","alt_names":[],"object_type":"PAYLOAD","status":"ACTIVE","operator":null,"country":"US","launch_date":"2023-10-18","launch_site_code":"AFETR","launch_vehicle":null,"mission":null,"orbit_class":"UNKNOWN","rcs_meters":null,"size_class":null,"mass_kg":null,"dimensions":null,"purposes":["comms"],"wikipedia_slug":null,"has_3d_model":false,"image_url":null,"decayed_at":null,"tle_current":{"epoch":"2026-05-25T00:47:07.463328Z","epoch_age_seconds":75498,"freshness":"FRESH","line1":"1 58094U 23160V   26145.03272527  .00004554  00000+0  17490-3 0  9995","line2":"2 58094  43.0017   6.5484 0001372 275.1594  84.9101 15.27580841144627","mean_motion":15.27580841,"eccentricity":0.0001372,"inclination_deg":43.0017,"raan_deg":6.5484,"arg_perigee_deg":275.1594,"mean_anomaly_deg":84.9101,"bstar":0.0001749,"rev_number":14462,"period_min":94.266696815688,"perigee_km":482.10522339739,"apogee_km":483.98793217113,"semimajor_km":6861.1835777843,"source":"CELESTRAK","updated_at":"2026-05-25T13:38:18.525158Z"}}}